Total_Precipitation_Accumulation
2.64 2.90 3.05 3.29 3.63 3.95 4.28 4.64 5.16 5.51 5.44 5.52 5.46 5.30 4.94 4.68 4.23 3.77 3.43 3.38 3.39 3.64 4.24 3.92 4.39 4.29 4.48 4.59 4.58 5.00 5.13 4.74 4.72 4.62 4.13 3.32 2.84 2.78 2.78 2.83 3.04 3.05 3.19
2.42 2.68 2.72 3.01 3.24 3.76 4.29 4.72 4.82 4.81 4.71 5.00 5.41 5.59 5.53 4.96 4.26 3.85 3.75 3.38 3.29 3.48 3.77 4.17 4.09 4.15 4.37 4.38 4.41 4.78 4.73 4.27 4.43 4.75 4.79 3.95 3.57 2.97 2.29 2.64 2.77 2.91 3.35
1.99 2.33 2.42 2.48 2.69 3.20 3.76 3.97 3.94 3.89 3.80 3.98 4.40 4.69 5.00 4.78 4.43 4.08 3.81 3.37 3.23 3.27 3.48 3.82 3.90 4.00 3.85 4.09 4.32 4.31 4.34 4.30 4.25 4.33 4.84 4.46 3.99 3.29 2.60 2.41 2.52 2.95 3.33
1.87 2.05 2.15 2.22 2.22 2.43 2.69 2.83 3.07 3.24 3.31 3.36 3.58 3.86 4.17 4.23 4.22 4.14 3.78 3.37 3.06 3.05 3.23 3.40 3.46 3.54 3.49 3.82 3.51 3.67 4.06 4.34 4.22 4.11 3.95 4.01 4.18 4.02 3.25 2.68 2.53 2.82 3.02
1.61 1.75 1.87 1.94 2.01 2.19 2.40 2.54 2.87 3.08 3.20 3.19 3.27 3.51 3.85 3.89 3.71 3.58 3.69 3.45 3.16 2.89 2.84 3.06 3.19 3.20 3.14 3.28 3.34 3.74 3.71 3.90 3.96 3.98 3.94 4.02 4.05 3.84 3.64 3.21 3.01 2.91 2.59
1.42 1.64 1.75 1.83 1.93 1.99 2.17 2.41 2.69 2.73 2.84 2.89 2.90 2.97 3.20 3.38 3.26 3.16 3.18 3.06 2.94 2.85 2.76 2.82 3.01 2.94 2.93 3.09 3.26 3.40 3.42 3.55 3.66 3.65 3.71 4.04 3.94 3.84 3.89 3.41 3.18 3.03 2.66
1.29 1.48 1.65 1.65 1.77 1.87 1.99 2.14 2.29 2.43 2.46 2.50 2.44 2.42 2.53 2.72 2.76 2.68 2.74 2.67 2.45 2.38 2.54 2.68 2.81 2.77 2.81 2.87 3.09 3.20 3.31 3.47 3.54 3.43 3.47 3.60 3.62 3.78 3.92 3.90 3.42 3.12 2.70
0.99 1.08 1.29 1.40 1.55 1.69 1.76 1.87 2.01 2.20 2.30 2.32 2.34 2.33 2.31 2.40 2.51 2.64 2.50 2.46 2.20 2.06 2.17 2.31 2.36 2.47 2.61 2.64 3.12 3.15 3.26 3.40 3.33 3.17 3.64 3.48 3.16 3.44 3.68 3.96 4.14 3.69 3.12
0.98 0.99 1.12 1.21 1.28 1.37 1.47 1.59 1.76 1.97 2.16 2.14 2.29 2.27 2.14 2.24 2.43 2.57 2.49 2.36 2.33 2.20 2.26 2.27 2.31 2.44 2.68 2.92 3.23 3.22 3.27 3.44 3.30 3.31 3.54 3.35 3.07 3.12 3.21 3.72 4.16 4.29 3.75
0.92 0.94 0.98 1.00 0.99 1.14 1.47 1.62 1.77 1.93 2.02 1.99 1.92 1.82 1.91 2.10 2.28 2.28 2.24 2.39 2.44 2.42 2.43 2.45 2.49 2.46 2.60 2.87 3.12 3.12 3.17 3.32 3.32 3.36 3.54 3.47 3.16 3.18 3.21 3.59 4.03 4.25 4.32
1.00 1.05 1.13 1.11 1.09 1.18 1.45 1.46 1.52 1.74 1.85 1.84 1.71 1.70 1.79 1.89 2.00 2.03 2.02 2.21 2.29 2.34 2.28 2.26 2.32 2.36 2.53 2.78 2.85 2.74 2.83 2.84 3.01 2.94 3.09 3.24 3.45 3.42 3.41 3.64 3.84 4.05 4.33
1.00 1.05 1.09 1.21 1.38 1.51 1.48 1.37 1.38 1.42 1.54 1.57 1.57 1.63 1.69 1.67 1.67 1.74 1.86 1.98 2.02 2.03 1.93 2.00 2.10 2.14 2.29 2.46 2.40 2.35 2.46 2.59 2.78 2.96 3.11 2.97 3.17 3.31 3.32 3.49 3.66 3.89 4.18
1.00 1.07 1.16 1.19 1.26 1.43 1.59 1.44 1.40 1.46 1.53 1.58 1.66 1.80 1.86 1.75 1.69 1.75 1.83 1.83 1.75 1.77 1.76 1.85 1.95 2.03 2.14 2.12 2.05 2.14 2.21 2.34 2.55 2.75 2.76 2.68 2.91 2.90 3.06 3.16 3.29 3.53 3.81
0.91 0.94 1.10 1.28 1.33 1.33 1.43 1.33 1.27 1.36 1.50 1.73 1.98 2.07 2.05 1.97 1.88 1.79 1.78 1.75 1.67 1.77 1.80 1.91 2.02 1.99 1.97 1.95 2.07 2.19 2.25 2.33 2.33 2.32 2.31 2.32 2.44 2.61 2.96 3.03 3.11 3.25 3.51
0.98 0.90 1.02 1.23 1.32 1.36 1.35 1.29 1.30 1.32 1.49 1.78 1.96 2.08 2.16 2.11 2.06 1.93 1.81 1.76 1.76 1.72 1.80 1.98 2.04 2.03 1.93 1.78 2.02 2.20 2.15 2.23 2.21 2.12 1.98 1.91 2.02 2.22 2.45 2.34 2.63 2.90 3.07
1.06 0.98 0.99 1.06 1.20 1.29 1.34 1.35 1.43 1.51 1.57 1.60 1.68 1.85 2.00 2.03 1.98 1.81 1.71 1.76 1.79 1.84 1.88 1.86 1.90 1.81 1.51 1.66 1.90 2.03 2.06 2.19 2.23 2.12 2.00 1.85 1.84 1.91 1.98 1.98 2.08 2.34 2.57
1.01 0.96 0.97 1.00 1.08 1.11 1.19 1.46 1.50 1.49 1.52 1.61 1.70 1.89 1.97 1.93 1.88 1.75 1.75 1.79 1.80 1.86 1.86 1.76 1.78 1.75 1.70 1.79 1.82 1.83 1.93 2.14 2.19 2.23 2.21 1.86 1.55 1.74 1.72 1.81 1.82 1.88 2.04
0.88 0.88 0.94 1.00 1.02 1.01 1.02 1.17 1.35 1.47 1.54 1.60 1.68 1.80 1.86 1.98 2.08 2.02 1.90 1.90 1.89 1.83 1.84 1.81 1.82 1.91 1.87 1.90 1.75 1.78 1.76 1.91 2.02 2.07 2.06 2.01 1.91 1.82 1.82 1.81 1.75 1.59 1.66
0.83 0.92 1.02 1.00 0.99 1.00 1.03 1.15 1.30 1.45 1.61 1.68 1.74 1.77 1.91 2.09 2.10 1.97 1.95 2.00 1.96 1.81 1.76 1.76 1.78 1.81 1.92 2.01 1.89 1.85 1.77 1.89 1.90 1.88 1.81 1.77 1.79 1.86 1.72 1.77 1.76 1.64 1.58
0.90 0.86 0.86 0.88 0.95 1.05 1.14 1.21 1.39 1.62 1.74 1.77 1.86 1.94 2.01 2.15 2.30 2.34 2.29 2.19 2.14 2.05 1.99 1.90 1.89 1.87 1.93 1.93 1.71 1.67 1.58 1.68 1.73 1.78 1.64 1.54 1.49 1.56 1.54 1.65 1.79 1.68 1.60
0.94 0.96 1.00 1.01 1.06 1.09 1.26 1.49 1.62 1.71 1.80 1.88 1.96 2.17 2.28 2.41 2.56 2.76 2.65 2.57 2.48 2.45 2.37 2.24 2.14 2.10 2.11 2.01 1.68 1.55 1.46 1.63 1.75 1.69 1.53 1.44 1.40 1.35 1.34 1.40 1.53 1.62 1.75
1.00 1.10 1.23 1.28 1.21 1.20 1.33 1.54 1.68 1.78 1.96 1.99 2.08 2.16 2.32 2.40 2.56 2.96 2.95 2.98 2.99 2.79 2.65 2.51 2.38 2.30 2.26 2.04 1.74 1.63 1.65 1.71 1.79 1.78 1.68 1.61 1.48 1.34 1.29 1.25 1.34 1.50 1.54
1.07 1.12 1.26 1.35 1.39 1.48 1.63 1.80 1.86 1.95 2.05 2.20 2.36 2.45 2.53 2.69 2.82 2.98 3.03 3.06 3.02 2.84 2.67 2.53 2.32 2.28 2.26 2.16 1.86 1.68 1.68 1.74 1.76 1.80 1.82 1.70 1.56 1.47 1.43 1.46 1.53 1.53 1.52
1.08 1.20 1.32 1.55 1.69 1.76 1.88 2.04 2.14 2.25 2.41 2.56 2.66 2.69 2.72 2.75 2.81 2.97 2.97 2.97 2.91 2.77 2.67 2.58 2.40 2.38 2.44 2.33 2.16 2.00 1.91 1.94 1.88 1.83 1.83 1.72 1.60 1.51 1.48 1.48 1.47 1.46 1.57
1.21 1.31 1.50 1.71 1.77 1.89 2.01 2.14 2.37 2.60 2.68 2.70 2.68 2.64 2.66 2.77 2.85 2.83 2.80 2.85 2.88 2.88 2.86 2.78 2.75 2.72 2.66 2.55 2.46 2.32 2.24 2.29 2.32 2.25 2.14 2.02 1.88 1.71 1.66 1.63 1.64 1.69 1.77
1.34 1.48 1.65 1.82 1.92 2.07 2.20 2.32 2.54 2.84 3.03 2.93 2.85 2.83 2.85 2.86 2.81 2.78 2.73 2.77 2.68 2.63 2.59 2.61 2.68 2.60 2.64 2.62 2.40 2.30 2.28 2.33 2.39 2.25 2.13 2.20 2.17 2.06 2.02 1.96 1.92 1.91 1.90